Flag for Uzbekistan Weather past 2 weeks in Samarkand, Uzbekistan

Now
57 °F

Clear.


Feels Like: 56 °F
Forecast: 50 / 77 °F
Wind: 6 mph from Southeast

Location: Samarkand


UV Index: 5 (Moderate)

Visibility: N/A


Pressure: 29.98 "Hg

Humidity: 51%

Dew point: 39 °F

Location of SamarkandLocation

Historic Weather in Samarkand

°F

Samarkand temperature yesterday

Maximum temperature yesterday: 73 °F (at 2:30 PM)
Minimum temperature yesterday: 46 °F (at 6:00 AM)
Average temperature yesterday: 63 °F

Past Weeks' High & Low Weather Summary

 TemperatureHumidityPressure
High77 °F (Apr 9, 2:00 PM)100% (Apr 11, 6:00 AM)30.48 "Hg (Apr 11, 6:00 AM)
Low36 °F (Apr 8, 5:30 AM)13% (Apr 9, 1:00 PM)29.83 "Hg (Apr 10, 2:00 AM)
Average55 °F58%30.10 "Hg
* Reported Apr 6 6:00 AM — Apr 21 6:30 AM, Samarkand, Weather by CustomWeather, © 2014

Note: Actual official high and low records may vary slightly from our data, if they occured in-between our weather recording intervals... More about our weather records

Advertising

Historic Weather Conditions — Data for Previous 24 hours

 ConditionsComfort  
Time TempWeatherWind HumidityBarometerVisibility
6:30 AM
Apr 21
54 °FClear.6 mph54%29.98 "HgN/A
6:00 AM50 °FClear.3 mph67%29.98 "HgN/A
5:30 AM52 °FClear.6 mph62%29.98 "HgN/A
5:00 AM52 °FClear.6 mph62%29.98 "HgN/A
4:00 AM52 °FClear.6 mph62%29.98 "HgN/A
3:00 AM54 °FClear.6 mph58%29.98 "HgN/A
2:30 AM55 °FClear.6 mph55%29.98 "HgN/A
1:30 AM57 °FClear.6 mph48%30.01 "HgN/A
1:00 AM57 °FClear.6 mph44%30.01 "HgN/A
12:30 AM59 °FClear.3 mph42%30.01 "HgN/A
12:00 AM59 °FClear.6 mph42%30.01 "HgN/A
11:30 PM
Apr 20
59 °FClear.3 mph42%30.01 "HgN/A
11:00 PM59 °FClear.3 mph42%30.04 "HgN/A
10:30 PM61 °FClear.3 mph39%30.04 "HgN/A
10:00 PM61 °FClear.3 mph39%30.04 "HgN/A
9:30 PM57 °FClear.8 mph48%30.04 "HgN/A
9:00 PM57 °FClear.8 mph48%30.04 "HgN/A
8:30 PM57 °FClear.8 mph51%30.04 "HgN/A
8:00 PM59 °FClear.6 mph39%30.04 "HgN/A
7:30 PM63 °FClear.No wind30%30.04 "HgN/A
7:00 PM66 °FClear.1 mph22%30.01 "HgN/A
6:30 PM68 °FClear.6 mph24%30.01 "HgN/A
6:00 PM70 °FClear.6 mph21%30.01 "HgN/A
5:30 PM72 °FClear.8 mph20%30.01 "HgN/A
5:00 PM72 °FClear.10 mph19%30.01 "HgN/A
4:30 PM73 °FClear.10 mph19%30.01 "HgN/A
4:00 PM73 °FClear.10 mph20%30.01 "HgN/A
3:30 PM73 °FClear.13 mph20%30.01 "HgN/A
3:00 PM73 °FClear.10 mph19%30.01 "HgN/A
2:30 PM73 °FClear.8 mph20%30.01 "HgN/A
2:00 PM72 °FClear.10 mph22%30.04 "HgN/A
1:30 PM72 °FClear.8 mph25%30.01 "HgN/A
1:00 PM72 °FClear.8 mph23%30.01 "HgN/A
12:30 PM72 °FClear.3 mph29%30.04 "HgN/A
12:00 PM70 °FClear.3 mph21%30.04 "HgN/A
11:30 AM70 °FClear.6 mph23%30.04 "HgN/A
11:00 AM68 °FClear.6 mph35%30.04 "HgN/A
10:30 AM68 °FClear.3 mph38%30.04 "HgN/A
10:00 AM68 °FClear.3 mph30%30.04 "HgN/A
9:30 AM68 °FClear.1 mph26%30.04 "HgN/A
9:00 AM68 °FClear.1 mph30%30.04 "HgN/A
8:30 AM66 °FClear.No wind30%30.04 "HgN/A
8:00 AM61 °FClear.3 mph48%30.01 "HgN/A
Weather by CustomWeather, © 2014

See weather overview